GW6984 Weather Reports


Display with metric or nautical units.
time (UTC)temp
F
wind
direction
speed
MPH
gust
MPH
rain 1hr
in
rain 24hr
in
rain mn
in
humidity
%
barometer
mb
20260505003933 64 159 0.0 3.0 0.00 0.00 0.00 48 1010.2
20260505003431 64 175 2.0 2.0 0.00 0.00 0.00 48 1010.2
20260505002927 64 164 2.0 3.0 0.00 0.00 0.00 47 1010.2
20260505002423 65 170 2.0 4.0 0.00 0.00 0.00 47 1010.1
20260505001922 65 149 3.0 4.0 0.00 0.00 0.00 45 1010.1
20260505001419 66 164 3.0 4.0 0.00 0.00 0.00 45 1010.1
20260505000916 66 178 3.0 8.0 0.00 0.00 0.00 43 1010.3
20260505000414 66 180 3.0 6.0 0.00 0.00 0.00 43 1010.1
20260504235910 66 198 6.0 8.0 0.00 0.00 0.00 42 1010.0
20260504235408 67 166 6.0 8.0 0.00 0.00 0.00 41 1010.1
20260504234903 67 161 6.0 10.0 0.00 0.00 0.00 41 1010.0
20260504234401 67 178 3.0 6.0 0.00 0.00 0.00 41 1010.2
20260504233857 68 175 5.0 6.0 0.00 0.00 0.00 40 1010.1
20260504233353 68 205 7.0 8.0 0.00 0.00 0.00 40 1010.2
20260504232850 68 203 7.0 9.0 0.00 0.00 0.00 40 1009.9
20260504232347 68 170 5.0 8.0 0.00 0.00 0.00 40 1010.1
20260504231844 69 192 8.0 11.0 0.00 0.00 0.00 39 1010.2
20260504231341 68 234 8.0 13.0 0.00 0.00 0.00 39 1010.1
20260504230837 68 177 6.0 8.0 0.00 0.00 0.00 40 1010.0
20260504230335 69 177 6.0 8.0 0.00 0.00 0.00 39 1010.0
20260504225833 69 166 3.0 8.0 0.00 0.00 0.00 40 1010.1
20260504225329 69 177 5.0 8.0 0.00 0.00 0.00 40 1010.0
20260504224827 69 187 6.0 11.0 0.00 0.00 0.00 39 1010.1
20260504224323 69 168 4.0 10.0 0.00 0.00 0.00 38 1010.1
20260504223820 69 170 4.0 10.0 0.00 0.00 0.00 39 1010.0
20260504223316 69 200 6.0 7.0 0.00 0.00 0.00 38 1010.0
20260504222813 70 186 8.0 10.0 0.00 0.00 0.00 37 1010.0
20260504222309 70 188 5.0 8.0 0.00 0.00 0.00 38 1010.0
20260504221808 70 176 5.0 10.0 0.00 0.00 0.00 38 1009.9
20260504221304 71 193 4.0 9.0 0.00 0.00 0.00 37 1009.9
20260504220801 71 169 4.0 10.0 0.00 0.00 0.00 38 1010.0
20260504220258 71 168 9.0 13.0 0.00 0.00 0.00 36 1009.8
20260504215755 71 147 9.0 11.0 0.00 0.00 0.00 36 1009.9
20260504215251 71 164 9.0 11.0 0.00 0.00 0.00 36 1009.9
20260504214747 71 211 5.0 9.0 0.00 0.00 0.00 35 1009.9
20260504214244 71 179 5.0 7.0 0.00 0.00 0.00 36 1010.0
20260504213741 72 197 7.0 10.0 0.00 0.00 0.00 35 1010.1
20260504213237 72 200 5.0 11.0 0.00 0.00 0.00 34 1009.9
20260504212734 72 178 8.0 15.0 0.00 0.00 0.00 34 1010.0
20260504212231 73 149 7.0 10.0 0.00 0.00 0.00 33 1009.9
20260504211729 73 156 12.0 16.0 0.00 0.00 0.00 33 1010.0
20260504211224 73 150 6.0 13.0 0.00 0.00 0.00 33 1009.9
20260504210722 73 176 5.0 13.0 0.00 0.00 0.00 33 1010.0
20260504210219 73 172 5.0 9.0 0.00 0.00 0.00 34 1010.1
20260504205716 73 203 6.0 10.0 0.00 0.00 0.00 34 1009.9
20260504205214 73 184 3.0 7.0 0.00 0.00 0.00 34 1010.0
20260504204712 73 189 6.0 11.0 0.00 0.00 0.00 34 1010.1
20260504204210 73 179 7.0 14.0 0.00 0.00 0.00 35 1010.3
20260504203709 74 194 6.0 8.0 0.00 0.00 0.00 34 1010.0
20260504203206 73 162 3.0 10.0 0.00 0.00 0.00 36 1010.1
20260504202706 73 159 9.0 13.0 0.00 0.00 0.00 33 1010.1
20260504202203 73 176 4.0 13.0 0.00 0.00 0.00 34 1010.3
20260504201700 73 175 3.0 9.0 0.00 0.00 0.00 36 1010.4
20260504201158 73 48 6.0 10.0 0.00 0.00 0.00 34 1010.3
20260504200655 74 156 2.0 11.0 0.00 0.00 0.00 34 1010.5
20260504200151 72 166 3.0 9.0 0.00 0.00 0.00 35 1010.6
20260504195647 73 178 5.0 9.0 0.00 0.00 0.00 33 1010.8
20260504195143 73 196 6.0 10.0 0.00 0.00 0.00 34 1010.9
20260504194640 73 170 4.0 8.0 0.00 0.00 0.00 33 1010.9
20260504194137 73 133 7.0 11.0 0.00 0.00 0.00 33 1010.8
20260504193633 73 183 8.0 10.0 0.00 0.00 0.00 33 1010.9
20260504193131 72 189 6.0 9.0 0.00 0.00 0.00 34 1011.0
20260504192629 72 207 5.0 8.0 0.00 0.00 0.00 36 1011.3
20260504192127 72 215 9.0 14.0 0.00 0.00 0.00 33 1011.4
20260504191625 72 164 8.0 11.0 0.00 0.00 0.00 33 1011.4
20260504191121 73 218 6.0 15.0 0.00 0.00 0.00 34 1011.3
20260504190617 73 179 5.0 14.0 0.00 0.00 0.00 34 1011.5
20260504190114 72 181 5.0 9.0 0.00 0.00 0.00 34 1011.5
20260504185610 73 192 6.0 9.0 0.00 0.00 0.00 35 1011.7
20260504185107 72 218 6.0 10.0 0.00 0.00 0.00 32 1011.7
20260504184603 73 234 6.0 13.0 0.00 0.00 0.00 32 1011.7
20260504184058 73 194 7.0 14.0 0.00 0.00 0.00 35 1011.7
20260504183555 72 229 6.0 9.0 0.00 0.00 0.00 34 1011.8
20260504183053 73 169 6.0 9.0 0.00 0.00 0.00 31 1011.7
20260504182550 73 204 6.0 14.0 0.00 0.00 0.00 34 1011.7
20260504182048 73 229 3.0 11.0 0.00 0.00 0.00 34 1011.9
20260504181544 72 181 6.0 8.0 0.00 0.00 0.00 32 1011.8
20260504181042 73 111 5.0 8.0 0.00 0.00 0.00 33 1011.9
20260504180541 72 229 6.0 9.0 0.00 0.00 0.00 34 1012.1
20260504180040 73 212 6.0 10.0 0.00 0.00 0.00 31 1012.0
20260504175537 74 170 4.0 4.0 0.00 0.00 0.00 31 1012.1
20260504175033 73 188 3.0 4.0 0.00 0.00 0.00 31 1012.1
20260504174531 73 136 12.0 15.0 0.00 0.00 0.00 30 1012.1
20260504174028 73 250 1.0 4.0 0.00 0.00 0.00 30 1012.2
20260504173525 73 214 11.0 15.0 0.00 0.00 0.00 30 1012.5
20260504173022 72 165 6.0 10.0 0.00 0.00 0.00 32 1012.5
20260504172518 73 126 5.0 8.0 0.00 0.00 0.00 33 1012.6
20260504172015 73 214 5.0 6.0 0.00 0.00 0.00 30 1012.5
20260504171512 71 180 2.0 6.0 0.00 0.00 0.00 32 1012.6
20260504171009 72 210 4.0 11.0 0.00 0.00 0.00 31 1012.8
20260504170504 71 159 0.0 3.0 0.00 0.00 0.00 29 1012.7
20260504160425 70 132 3.0 7.0 0.00 0.00 0.00 33 1013.5
20260504150848 67 173 4.0 8.0 0.00 0.00 0.00 35 1014.2
20260504150345 67 173 4.0 9.0 0.00 0.00 0.00 38 1014.0
20260504141315 63 211 2.0 3.0 0.00 0.00 0.00 41 1014.4
20260504140812 63 181 4.0 7.0 0.00 0.00 0.00 42 1014.3
20260504140307 63 204 4.0 6.0 0.00 0.00 0.00 41 1014.3
20260504130736 59 186 4.0 8.0 0.00 0.00 0.00 48 1014.5
20260504130232 59 168 2.0 6.0 0.00 0.00 0.00 48 1014.7
20260504120156 53 165 2.0 3.0 0.00 0.00 0.00 60 1014.8
20260504110623 47 117 0.0 0.0 0.00 0.00 0.00 67 1015.0
20260504110119 46 117 0.0 0.0 0.00 0.00 0.00 69 1015.0
20260504100545 44 116 0.0 0.0 0.00 0.00 0.00 72 1015.1
20260504081938 45 189 0.0 0.0 0.00 0.00 0.00 64 1015.5
20260504081436 45 174 0.0 1.0 0.00 0.00 0.00 65 1015.3
20260504080931 45 185 0.0 0.0 0.00 0.00 0.00 61 1015.1
20260504080428 45 196 1.0 2.0 0.00 0.00 0.00 62 1015.2
20260504070356 48 202 0.0 1.0 0.00 0.00 0.00 56 1015.2
20260504050743 41 347 2.0 2.0 0.00 0.00 0.00 74 1015.6
20260504050241 41 345 2.0 2.0 0.00 0.00 0.00 74 1015.5
20260504045738 41 16 2.0 2.0 0.00 0.00 0.00 71 1015.7
20260504045233 41 105 0.0 0.0 0.00 0.00 0.00 73 1015.8
20260504044731 41 347 1.0 2.0 0.00 0.00 0.00 73 1015.7
20260504044228 41 347 0.0 1.0 0.00 0.00 0.00 73 1015.6
20260504043725 42 156 1.0 1.0 0.00 0.00 0.00 70 1015.8
20260504043222 42 156 0.0 0.0 0.00 0.00 0.00 71 1015.6
20260504042720 42 157 1.0 2.0 0.00 0.00 0.00 71 1015.7
20260504042216 42 31 1.0 1.0 0.00 0.00 0.00 68 1015.5
20260504041712 42 32 0.0 0.0 0.00 0.00 0.00 69 1015.4
20260504041208 42 32 0.0 0.0 0.00 0.00 0.00 65 1015.5
20260504040705 43 32 0.0 0.0 0.00 0.00 0.00 69 1015.4
20260504040202 44 357 1.0 1.0 0.00 0.00 0.00 65 1015.3
20260504035658 44 355 2.0 2.0 0.00 0.00 0.00 65 1015.4
20260504035155 44 358 2.0 2.0 0.00 0.00 0.00 65 1015.3
20260504034653 43 0 2.0 2.0 0.00 0.00 0.00 66 1015.3
20260504034149 43 11 0.0 0.0 0.00 0.00 0.00 68 1015.4
20260504033647 42 11 0.0 0.0 0.00 0.00 0.00 69 1015.4
20260504033144 43 11 0.0 0.0 0.00 0.00 0.00 69 1015.4
20260504032641 43 11 0.0 0.0 0.00 0.00 0.00 68 1015.0
20260504032138 43 11 0.0 0.0 0.00 0.00 0.00 68 1015.2
20260504031635 43 11 0.0 0.0 0.00 0.00 0.00 67 1015.0
20260504031132 44 11 0.0 0.0 0.00 0.00 0.00 65 1015.0
20260504030628 44 11 0.0 0.0 0.00 0.00 0.00 65 1015.0
20260504030125 44 11 0.0 0.0 0.00 0.00 0.00 65 1015.1
20260504025622 44 12 0.0 0.0 0.00 0.00 0.00 62 1015.2
20260504025119 44 12 0.0 0.0 0.00 0.00 0.00 62 1015.0
20260504024616 45 12 0.0 0.0 0.00 0.00 0.00 60 1015.0
20260504024113 45 12 0.0 0.0 0.00 0.00 0.00 60 1014.9
20260504023609 46 11 1.0 1.0 0.00 0.00 0.00 59 1014.9
20260504023105 46 11 1.0 1.0 0.00 0.00 0.00 59 1014.9
20260504022602 46 11 1.0 1.0 0.00 0.00 0.00 58 1015.0
20260504022058 46 12 0.0 0.0 0.00 0.00 0.00 58 1015.0
20260504021555 46 12 1.0 1.0 0.00 0.00 0.00 56 1015.0
20260504021052 46 14 1.0 2.0 0.00 0.00 0.00 56 1014.8
20260504020549 46 19 1.0 2.0 0.00 0.00 0.00 56 1015.1
20260504020045 47 27 1.0 1.0 0.00 0.00 0.00 56 1015.1
20260504015542 47 29 0.0 0.0 0.00 0.00 0.00 54 1015.1
20260504015038 47 29 0.0 1.0 0.00 0.00 0.00 53 1015.1
20260504014534 47 29 0.0 1.0 0.00 0.00 0.00 54 1014.9
20260504014031 48 29 1.0 1.0 0.00 0.00 0.00 52 1015.0
20260504013529 48 30 1.0 1.0 0.00 0.00 0.00 51 1014.9
20260504013026 48 30 1.0 1.0 0.00 0.00 0.00 51 1014.9
20260504012524 48 39 1.0 1.0 0.00 0.00 0.00 52 1014.8
20260504012021 48 78 1.0 1.0 0.00 0.00 0.00 51 1014.8
20260504011518 49 149 1.0 1.0 0.00 0.00 0.00 50 1014.8
20260504011014 50 149 1.0 1.0 0.00 0.00 0.00 48 1014.7
20260504010509 50 149 0.0 0.0 0.00 0.00 0.00 47 1014.8
20260504010005 50 149 1.0 1.0 0.00 0.00 0.00 45 1014.5
20260504005502 50 149 1.0 1.0 0.00 0.00 0.00 45 1014.5
20260504005000 50 148 1.0 1.0 0.00 0.00 0.00 48 1014.4
20260504004458 51 147 0.0 1.0 0.00 0.00 0.00 48 1014.5